Theta_e
322 316 315 310 298 295 290 292 296 298 298 300 306 303 302 304 305 301 326 336 338 340 343 347 350 351 351 350 349 346 345 342 341 340 340 341 341 342 343 344 345 345 340 338 339 336 336 337 338
318 317 310 303 294 289 289 293 296 299 301 302 305 303 303 304 316 319 329 337 338 341 344 347 347 350 350 350 348 346 344 342 341 340 340 340 340 341 341 342 344 344 341 337 338 336 335 335 336
318 315 304 298 292 289 290 293 298 300 301 300 300 303 303 308 318 324 333 338 339 340 345 346 347 350 350 350 348 346 344 342 340 339 339 339 339 341 340 344 343 343 341 338 337 335 334 334 334
310 306 301 294 291 293 293 296 300 299 300 301 301 300 308 314 321 330 336 339 338 339 343 344 348 350 350 349 348 346 344 341 339 338 337 338 339 339 342 344 342 341 339 336 336 333 333 333 333
307 302 295 292 291 293 296 299 301 299 298 298 299 299 306 318 331 333 334 337 336 339 341 345 347 348 348 348 347 346 344 341 338 336 336 337 338 338 343 341 340 339 337 334 333 331 331 331 331
300 299 291 289 291 295 296 299 300 299 298 299 298 299 307 318 325 331 334 335 340 339 342 345 340 343 345 346 346 345 344 341 338 336 335 336 337 339 340 340 338 336 334 333 330 329 330 330 331
299 295 290 292 292 294 297 299 297 297 298 299 301 297 307 315 322 330 333 334 340 341 341 343 344 342 339 341 341 342 342 341 339 337 336 337 337 338 338 336 333 333 332 331 328 328 329 329 331
300 297 294 292 291 293 297 298 299 298 297 301 302 297 303 312 322 329 331 333 340 341 341 341 341 342 341 340 335 337 338 338 337 334 332 331 332 333 332 330 332 331 330 329 327 328 328 330 329
300 293 290 292 292 293 297 296 299 300 300 299 302 304 308 315 322 324 324 324 335 336 338 341 340 340 340 338 334 333 333 333 332 328 326 324 325 326 326 327 329 329 328 327 326 326 325 324 327
296 291 292 293 293 294 297 297 297 295 297 297 300 305 313 318 317 317 320 319 327 330 334 339 341 339 339 340 335 335 334 333 330 324 322 321 322 322 324 322 325 326 326 326 325 324 322 316 313
296 293 295 294 297 297 297 296 298 296 294 297 299 303 312 314 316 316 320 320 322 330 333 336 339 339 338 338 336 337 335 332 329 323 321 323 321 319 318 317 316 316 317 316 318 316 312 311 310
291 296 296 299 298 297 295 298 296 296 298 301 301 303 309 313 315 315 319 320 322 327 330 332 337 337 337 339 337 337 335 334 329 324 324 323 320 319 316 314 312 312 311 310 310 309 309 308 308
294 295 297 298 298 295 297 295 295 296 299 300 301 303 306 311 314 315 317 320 321 323 329 331 332 334 336 338 336 337 335 335 331 326 327 322 318 317 316 315 313 310 310 310 309 307 306 305 306
297 297 297 297 297 297 295 293 295 296 298 298 300 300 302 308 311 312 314 317 319 324 326 330 331 334 335 336 336 336 336 336 331 327 328 324 322 319 316 315 314 314 312 311 309 305 303 302 303
298 292 294 295 297 296 296 291 294 297 298 297 298 297 299 301 305 310 315 316 319 322 326 328 331 332 335 336 336 337 336 336 333 328 328 325 324 321 319 316 316 314 314 311 309 302 300 298 298
292 291 286 293 296 296 294 287 295 296 296 296 296 295 297 300 301 304 308 314 314 317 322 327 331 331 331 336 336 336 337 335 334 329 328 326 324 321 319 315 316 314 312 308 305 302 298 294 294
289 284 286 290 296 295 293 288 296 297 296 296 296 297 298 298 299 300 302 305 313 316 320 324 329 330 330 331 334 333 335 334 334 332 329 326 325 322 318 317 316 313 311 308 304 300 297 294 292
284 285 287 286 293 293 290 291 294 297 296 295 294 295 296 298 299 302 302 303 306 313 318 324 327 330 330 328 327 327 330 333 333 334 331 327 326 323 319 316 315 313 309 305 303 298 296 293 292
288 287 285 288 293 291 290 290 292 295 294 294 293 293 294 296 299 300 302 303 302 309 315 321 323 325 328 325 324 323 325 321 329 332 332 330 327 324 321 317 315 313 308 305 301 297 294 292 292
289 287 286 289 292 290 289 290 293 293 295 296 295 294 295 295 297 300 300 300 301 306 314 318 323 323 327 329 328 326 325 318 319 320 327 331 329 325 322 318 315 313 308 303 299 296 292 292 292
287 286 285 287 289 289 287 285 289 292 294 296 296 297 296 296 297 298 299 299 299 301 309 316 321 323 325 325 319 316 316 315 315 315 320 320 327 325 323 319 316 313 309 303 299 296 294 291 291
285 290 290 288 285 281 287 278 285 290 292 292 296 295 295 296 298 298 298 299 299 300 303 311 316 320 321 319 319 317 320 318 320 319 312 310 315 319 323 320 317 313 310 304 300 298 297 294 290
288 291 289 288 285 283 283 280 284 287 288 291 293 294 295 296 297 297 298 299 300 300 301 305 310 314 317 319 318 315 311 312 306 306 307 305 306 310 313 318 317 313 310 307 302 299 298 295 294
293 290 290 287 284 278 282 282 280 286 290 291 293 294 298 297 296 296 296 298 299 300 301 301 304 306 309 313 310 311 309 305 304 303 303 301 305 307 309 311 314 313 311 308 303 300 299 296 296
290 285 278 277 276 277 283 280 283 289 293 293 295 295 297 298 298 297 296 296 297 297 299 301 301 302 304 307 308 307 307 305 304 303 303 301 301 300 305 307 310 311 310 308 304 301 299 297 296
287 285 279 273 276 278 282 280 286 292 295 296 297 295 296 297 298 298 297 297 296 297 298 300 300 301 302 304 306 306 306 305 304 304 303 303 302 301 304 304 305 306 306 305 302 299 298 297 296
287 284 288 282 272 275 280 284 289 293 293 294 294 296 295 296 297 297 297 296 296 297 298 299 299 300 301 302 304 304 305 304 303 304 303 302 300 300 298 302 302 302 303 303 302 300 297 297 296
289 291 283 282 272 271 278 279 283 289 292 294 294 294 295 297 296 296 296 296 297 297 298 299 300 300 300 301 302 303 303 303 303 302 302 301 300 298 295 298 300 299 300 301 300 298 297 296 296
287 286 287 287 282 276 275 280 289 292 293 293 294 295 295 296 296 295 295 295 296 297 298 298 299 299 300 301 301 301 301 301 301 300 300 299 297 295 293 293 295 296 296 297 298 297 296 296 295
287 287 287 281 279 282 281 283 294 293 293 294 294 295 294 294 295 294 295 295 295 296 296 297 298 298 299 300 300 300 300 299 299 299 299 296 295 292 291 290 289 291 293 294 295 293 295 294 293
Wind_Speed
7 8 2 5 6 5 2 1 5 5 4 3 3 8 6 1 3 4 4 10 17 15 13 11 13 14 13 13 13 13 12 12 13 13 13 13 12 12 12 12 14 19 20 20 20 18 18 17 16
5 5 5 3 5 4 3 3 6 3 4 6 6 3 6 3 3 6 6 18 18 15 12 11 13 14 14 12 13 13 12 13 13 12 13 13 12 12 11 12 16 18 20 18 19 17 17 16 16
4 2 4 4 3 4 3 4 8 4 4 3 3 3 3 4 2 7 5 18 16 14 12 11 14 16 15 13 13 15 12 13 13 13 13 13 12 12 11 11 17 18 19 18 17 15 15 15 16
2 6 5 5 1 5 7 7 7 5 5 4 4 4 4 1 10 8 8 18 15 14 12 12 15 16 15 13 15 15 13 14 13 13 13 13 12 12 11 16 18 19 19 16 16 15 14 15 16
4 3 3 2 1 3 6 8 7 5 5 3 3 4 4 4 7 10 9 13 15 11 12 13 14 16 15 14 15 15 14 14 14 13 13 13 12 12 14 18 18 18 18 15 15 15 14 14 16
4 4 3 2 1 3 3 6 9 7 4 4 2 6 4 5 7 7 8 10 13 13 12 12 13 13 15 15 15 15 14 13 13 14 13 13 13 13 14 15 16 17 15 15 15 15 15 16 18
5 4 3 1 2 2 4 5 6 5 7 5 5 4 2 3 6 7 8 9 13 13 12 10 9 11 12 13 13 14 15 14 14 14 13 12 11 12 13 14 16 15 15 15 15 15 15 15 18
4 5 2 2 3 3 3 2 1 3 3 1 4 4 5 7 9 8 7 8 13 13 14 11 9 8 7 8 12 13 13 13 13 12 12 11 11 11 11 11 14 15 15 16 16 15 14 17 17
3 5 0 3 4 3 1 3 4 4 5 2 2 5 4 11 9 7 5 5 7 8 11 13 11 9 7 7 8 11 13 13 12 11 12 11 7 8 8 9 13 15 15 16 16 15 14 14 13
5 5 3 2 2 2 3 4 4 2 4 1 3 3 7 9 8 9 8 8 7 7 9 13 11 12 10 7 7 6 7 6 6 6 8 5 5 5 8 8 11 12 13 14 16 15 11 8 5
3 5 2 2 2 3 2 3 2 5 3 6 9 11 10 6 9 9 8 8 9 9 8 10 12 12 13 9 7 5 5 4 4 6 5 5 6 4 5 4 4 4 6 3 5 5 4 6 5
1 2 3 2 3 2 2 5 5 5 8 6 6 11 9 10 10 11 10 10 9 10 11 10 13 12 13 8 9 10 7 7 6 7 6 7 6 6 5 5 5 4 3 5 4 3 5 6 6
3 3 2 5 5 0 2 4 5 7 10 8 4 11 13 10 10 7 8 7 8 9 12 13 12 13 12 12 9 10 11 8 9 8 6 6 6 8 7 7 6 4 4 4 4 5 5 5 6
3 2 4 4 4 3 2 3 1 8 8 8 7 8 10 11 13 7 8 11 10 11 13 13 14 12 12 11 12 10 10 11 9 9 9 9 7 7 9 8 8 7 6 5 6 5 5 5 5
3 2 5 5 5 2 3 5 9 9 6 3 6 9 9 11 10 13 15 14 14 11 13 14 15 13 12 14 13 10 9 10 10 10 12 11 8 9 8 8 7 5 6 8 7 6 5 5 5
3 3 2 4 8 2 3 8 8 2 5 7 9 9 8 11 14 14 15 13 11 10 13 14 13 14 13 13 12 9 9 9 10 10 10 13 11 11 9 6 7 7 8 7 9 8 6 5 5
3 2 5 2 4 3 4 6 5 4 4 6 7 9 9 10 11 12 12 13 13 13 11 14 15 17 13 11 10 10 11 10 9 10 10 14 13 12 10 8 8 8 8 9 8 7 9 7 6
5 2 3 4 4 3 3 9 11 11 8 10 11 10 10 10 13 12 14 12 11 12 11 13 12 15 14 7 6 5 7 8 9 10 11 15 12 13 10 8 9 10 8 8 8 9 6 8 7
3 3 2 4 5 5 7 9 11 11 10 13 10 10 11 12 9 10 11 13 11 9 10 12 12 10 11 7 7 6 8 4 7 9 14 15 13 15 14 9 10 10 10 11 10 10 11 6 8
4 4 4 4 2 3 6 13 12 8 14 14 11 12 11 7 7 9 9 8 11 15 14 11 13 12 13 11 9 6 5 2 3 4 9 14 15 15 14 13 13 12 10 11 13 12 8 3 9
3 4 3 5 2 4 5 9 8 5 6 7 10 13 8 11 11 10 10 9 9 10 13 15 14 15 14 11 4 3 3 2 3 4 7 6 13 15 15 15 13 14 12 12 14 16 17 10 9
3 2 5 5 2 4 2 8 8 8 13 8 12 9 9 9 10 7 7 6 9 10 6 7 8 11 11 9 9 10 10 10 8 6 3 4 5 8 12 14 16 16 12 14 15 14 11 8 16
6 1 2 2 2 3 3 1 11 6 7 13 9 9 8 4 4 6 6 4 3 6 7 7 8 8 8 12 11 9 7 4 3 3 6 5 4 4 5 10 14 15 12 15 17 15 15 12 9
8 6 8 6 3 5 9 8 5 5 8 5 4 3 6 6 5 5 3 4 4 3 5 6 8 7 7 9 8 10 9 6 5 4 5 4 4 5 6 7 11 13 14 15 15 16 18 14 12
6 7 1 3 2 10 3 4 7 7 8 4 5 6 7 6 7 5 6 4 3 2 2 2 5 6 7 9 9 9 8 8 8 7 5 6 6 4 8 8 9 10 11 12 12 14 15 15 13
8 9 8 8 5 6 5 8 6 8 8 6 7 4 4 5 3 6 6 5 5 5 4 2 3 3 4 6 7 7 7 5 5 6 5 6 6 7 8 8 7 7 8 9 10 10 10 11 12
7 7 7 4 1 3 6 8 9 8 10 11 10 8 8 8 7 7 5 3 4 4 4 5 4 3 3 5 5 6 7 7 7 7 6 6 6 5 7 10 9 8 9 10 11 9 12 11 12
7 7 4 1 3 5 6 6 8 7 5 6 8 9 10 7 1 2 2 3 3 2 2 4 4 6 5 6 6 6 7 7 6 6 7 7 7 7 7 9 10 9 8 9 11 8 9 11 9
4 5 4 5 7 7 3 7 5 7 4 5 5 6 7 8 4 4 3 3 2 1 3 4 5 6 6 7 6 7 6 7 6 6 6 6 6 8 8 8 8 8 9 9 9 9 10 12 11
1 8 7 7 4 5 4 11 5 9 6 7 6 6 4 4 3 3 3 2 1 4 4 5 5 6 7 6 6 7 6 6 7 7 7 6 7 6 8 8 8 8 8 7 9 8 9 11 12
Wind_Direction
332 316 62 31 51 67 127 109 129 97 50 73 76 84 116 83 116 177 219 145 135 144 147 143 138 135 134 135 128 110 102 103 99 95 94 95 92 89 84 80 98 99 90 86 82 79 81 79 70
331 323 42 63 86 68 299 187 113 102 145 85 60 38 63 105 104 126 116 142 139 143 147 145 140 138 138 136 125 114 112 112 107 108 105 104 104 98 92 84 101 98 97 90 85 82 82 78 65
311 219 72 101 98 126 169 139 133 126 109 108 87 71 94 125 79 143 155 136 133 141 143 144 139 140 141 135 128 118 122 118 116 113 111 107 107 100 93 91 108 101 94 92 87 85 84 74 61
26 9 9 74 88 344 121 131 134 109 21 36 119 81 56 20 155 164 146 132 133 144 140 144 143 145 144 137 130 129 130 127 120 115 111 109 108 104 92 106 102 98 94 92 90 87 85 74 62
35 63 40 345 326 150 100 150 128 134 164 179 110 157 106 6 113 133 131 128 136 133 142 147 146 147 146 142 138 137 135 131 125 118 113 114 111 108 102 100 96 96 93 98 94 91 85 69 58
28 88 47 350 244 155 113 133 131 147 167 159 125 115 190 153 120 161 132 133 126 135 143 148 147 147 150 150 146 141 136 132 128 125 124 123 119 111 102 111 104 96 108 106 101 97 88 71 59
111 87 207 283 272 134 156 135 133 151 152 190 169 93 158 146 181 157 148 128 133 137 140 142 149 155 153 151 148 145 143 141 138 135 130 122 116 111 111 105 107 117 118 113 109 105 92 75 79
102 97 330 271 278 120 156 88 118 82 170 115 121 151 184 208 182 150 159 137 147 148 148 146 147 150 153 159 153 149 146 143 140 131 125 116 110 104 103 106 122 125 123 117 115 107 92 89 81
66 64 199 298 328 128 138 101 335 167 112 38 83 127 205 152 150 132 162 131 155 152 149 154 156 156 157 156 162 151 150 146 142 138 137 132 133 121 111 120 126 131 128 125 120 111 96 77 79
91 105 212 9 24 99 132 110 178 96 128 164 79 15 112 136 155 160 175 182 164 168 161 156 162 164 158 165 153 152 151 151 150 149 148 137 125 130 125 124 128 130 128 131 128 117 87 71 70
180 164 190 36 70 41 54 30 144 156 215 204 200 182 170 160 173 180 191 191 178 178 169 166 164 171 165 162 160 161 159 153 149 153 164 157 127 122 125 119 111 114 116 129 110 73 71 80 77
111 279 113 110 45 36 54 319 314 195 219 164 172 184 171 170 189 193 197 193 179 181 180 171 175 170 173 163 168 175 170 167 165 174 182 152 144 146 144 135 136 131 141 123 104 99 95 80 75
121 347 60 133 110 178 346 267 245 262 260 265 197 148 183 187 197 210 204 199 192 183 189 183 174 176 172 167 168 172 181 177 174 175 180 150 159 158 152 152 153 154 152 136 126 110 94 85 77
148 31 285 174 176 192 206 260 36 265 253 249 190 187 189 191 202 201 203 210 201 197 189 187 185 180 175 173 170 174 178 180 173 175 182 166 166 170 162 163 168 172 161 148 130 124 116 104 92
84 4 319 242 192 168 186 300 227 241 268 264 209 212 205 217 200 206 208 210 204 203 193 189 185 180 175 177 177 177 182 177 178 177 177 175 165 166 173 167 163 154 143 133 119 108 100 94 91
127 76 16 312 138 224 113 271 281 302 173 236 243 256 235 223 212 215 211 208 204 191 189 192 192 184 173 180 180 181 178 181 182 177 177 180 174 167 163 166 172 151 147 136 136 137 116 109 110
338 197 205 296 219 130 167 265 260 341 334 279 254 239 234 242 241 237 215 206 205 198 185 190 187 191 184 172 177 179 181 182 180 179 180 185 180 173 169 171 167 160 152 149 149 148 146 139 128
200 201 270 214 222 169 215 255 276 288 293 262 257 250 247 243 236 226 222 212 200 194 189 187 183 189 189 166 162 170 177 186 179 185 185 182 181 175 170 169 164 164 158 151 154 145 143 136 137
183 139 197 264 204 161 228 256 265 272 287 270 259 258 243 242 245 240 229 216 203 194 180 179 173 182 177 179 177 186 193 174 178 187 183 178 179 179 179 173 169 169 170 166 158 134 137 141 135
189 218 254 297 173 154 266 272 263 244 257 257 249 252 249 253 261 261 246 220 202 196 191 178 182 177 188 191 197 197 186 184 151 164 183 182 181 182 178 175 176 177 167 158 157 158 141 127 176
193 169 234 220 351 285 309 289 292 288 248 261 255 249 258 236 247 249 251 224 204 191 186 190 184 180 185 180 135 96 96 73 130 193 191 189 180 178 181 180 178 175 173 174 178 175 166 162 197
233 200 228 253 31 234 128 284 296 266 278 277 260 266 266 252 258 256 254 226 195 203 190 161 160 172 179 160 172 188 201 204 213 199 172 175 188 157 187 189 181 182 178 182 182 179 191 183 176
204 139 115 126 158 353 287 267 269 287 276 256 277 256 269 187 144 76 83 57 209 156 166 166 161 166 171 181 182 184 199 201 137 132 161 176 201 212 188 194 192 186 187 188 182 185 192 188 187
148 69 36 36 65 279 195 195 279 218 231 278 250 212 178 177 127 115 106 77 75 101 160 174 180 184 172 176 169 182 187 167 159 169 179 182 196 214 219 202 200 196 190 192 185 191 189 197 188
107 102 327 331 354 239 277 241 226 258 226 259 283 286 209 197 169 165 151 144 139 106 87 149 172 195 179 178 180 180 182 181 186 181 185 175 186 197 214 204 207 205 196 193 184 191 196 192 199
190 160 163 198 204 264 328 240 247 230 256 282 301 13 199 222 208 195 204 196 184 174 175 198 197 212 192 183 186 179 179 184 191 190 185 196 195 194 184 203 207 204 191 182 185 186 192 200 203
203 207 171 79 48 29 231 294 306 285 300 336 341 13 348 255 222 217 199 175 181 187 197 192 196 233 227 207 191 187 186 190 197 202 191 192 184 183 180 195 206 198 190 186 186 190 196 195 203
152 164 84 357 158 244 257 259 232 281 45 1 11 14 359 352 34 75 150 198 185 175 200 184 180 204 220 218 211 208 203 205 208 202 204 194 193 179 177 192 202 197 193 191 188 191 198 197 204
142 193 192 144 156 175 266 259 228 133 160 97 57 33 25 41 36 357 19 30 34 71 193 204 199 204 216 214 218 213 213 212 211 213 213 206 179 175 179 186 192 195 193 191 194 199 191 198 200
250 204 165 144 233 228 165 252 169 136 148 90 59 47 26 60 75 117 125 117 263 249 253 238 231 223 224 225 226 227 221 220 220 217 211 190 189 182 178 175 179 186 194 195 201 195 197 201 201